#timestamp,LO_Frequency,Hit,StdDev 
1525460415.5,286047002.8,N
1525460435.3,286047002.0,N
1525460455.1,286047002.4,N
1525460475.9,286047002.4,N
1525460495.7,286047002.7,N
1525460515.5,286047002.2,N
1525460535.4,286047000.2,N
1525460555.2,286046998.2,N
1525460575.1,286046998.2,N
1525460576.0,286046998.2,N
1525460595.8,286047000.2,N
1525460615.6,286047000.1,N
1525460635.5,286047002.8,N
1525460655.3,286047002.8,N
1525460675.1,286047001.5,N
1525460695.9,286047002.6,N
1525460715.7,286047002.3,N
1525460735.6,286047002.4,N
1525460755.4,286046999.8,N
1525460775.2,286047000.1,N
1525460795.1,286047000.9,N
1525460796.0,286047000.9,N
1525460815.8,286047001.2,N
1525460835.6,286047001.1,N
1525460855.5,286046998.5,N
1525460905.3,286047000.7,E
1525460915.3,286046998.5,N
1525460935.1,286046999.3,P
1525460955.8,286046998.2,P
1525460975.7,286046996.9,Y
1525460995.5,286046998.6,P
1525461015.4,286046998.9,P
1525461035.2,286046997.2,P
1525461055.0,286046995.4,Y
1525461055.9,286046995.4,P
1525461075.8,286046997.0,N
1525461095.6,286046996.6,N
1525461115.4,286046997.0,N
1525461135.3,286046996.8,Y
1525461155.1,286047002.7,P
1525461175.9,286047004.4,N
1525461195.7,286047001.9,N
1525461215.5,286047001.6,N
1525461235.4,286047001.5,N
1525461255.2,286047004.1,N
1525461275.1,286047003.7,N
1525461276.0,286047003.7,N
1525461295.8,286047004.0,N
1525461315.6,286047002.0,N
1525461335.5,286047002.5,N
1525461355.3,286047004.1,N
1525461375.1,286047003.0,N
1525461395.9,286047003.4,N
1525461415.7,286047004.2,N
1525461435.6,286047001.6,N
1525461455.4,286047001.6,N
1525461475.2,286047004.3,N
1525461495.1,286047003.4,N
1525461496.0,286047003.4,N
1525461515.8,286047003.4,N
1525461535.6,286047005.5,Y
1525461555.5,286047001.7,P
1525461575.3,286047002.1,P
1525461595.2,286047000.4,N
1525461615.9,286047002.8,Y
1525461635.7,286046998.5,P
1525461655.6,286047000.8,N
1525461675.4,286047000.2,N
1525461695.3,286047000.9,N
1525461715.1,286047000.0,N
1525461716.0,286047000.0,N
1525461735.8,286047000.3,N
1525461755.7,286046999.8,N
1525461775.5,286047002.0,N
1525461795.3,286047002.3,N
1525461815.2,286046999.7,N
1525461835.0,286047000.2,N
1525461835.9,286047000.2,N
1525461855.8,286047002.4,N
1525461875.6,286047002.6,N
1525461895.4,286047003.7,Y
1525461915.3,286047001.8,P
1525461935.1,286047002.8,P
1525461955.9,286047000.1,N
1525461975.7,286047000.4,N
1525461995.5,286047001.2,N
1525462015.4,286047000.7,N
1525462035.2,286047000.1,N
1525462055.0,286047001.9,N
1525462055.9,286047001.9,N
1525462075.8,286047004.2,Y
1525462095.6,286046999.7,P
1525462115.5,286047002.5,P
1525462135.3,286047000.4,N
1525462155.1,286047000.9,N
1525462175.9,286047000.5,N
1525462195.7,286047002.8,Y
1525462215.5,286046999.7,P
1525462235.4,286047002.1,P
1525462255.2,286047000.5,N
1525462275.1,286046998.6,N
1525462276.0,286046998.6,N
1525462295.8,286046998.3,N
1525462315.6,286047000.8,N
1525462335.5,286047000.7,N
1525462355.3,286046998.2,N
1525462375.1,286046999.9,N
1525462395.9,286047002.7,N
1525462415.7,286047002.2,N
1525462435.6,286047002.7,N
1525462455.4,286047001.6,N
1525462475.2,286047001.3,N
1525462495.1,286047003.9,N
1525462496.0,286047003.9,N
1525462515.8,286047003.1,N
1525462535.7,286047001.7,N
1525462555.5,286047002.3,N
1525462575.3,286047002.7,N
1525462595.2,286047002.3,N
1525462615.0,286047000.9,N
1525462615.9,286047000.9,N
1525462635.7,286047000.2,N
1525462655.6,286047002.3,N
1525462675.4,286047004.0,N
1525462695.3,286047003.5,N
1525462715.1,286047005.9,Y
1525462735.8,286047002.7,P
1525462755.7,286046999.8,N
1525462775.5,286046998.4,N
1525462795.3,286046998.3,N
1525462815.2,286046998.6,N
1525462835.0,286046998.4,N
1525462835.9,286046998.4,N
1525462855.8,286046998.4,N
1525462875.6,286046998.6,N
1525462895.4,286046998.4,N
1525462915.3,286047001.2,N
1525462935.1,286046999.9,N
1525462955.9,286047000.4,N
1525462975.7,286047000.3,N
1525462995.5,286047000.5,N
1525463015.4,286047002.3,N
1525463035.2,286047000.1,N
1525463055.0,286047001.5,N
1525463055.9,286047001.5,N
1525463075.8,286047002.6,N
1525463095.6,286047002.1,N
1525463115.5,286047001.9,N
1525463135.3,286047002.2,N
1525463155.1,286047001.6,N
1525463175.9,286047001.9,N
1525463195.7,286047002.8,N
1525463215.5,286047002.5,N
1525463235.4,286047002.6,N
1525463255.2,286047000.3,N
1525463275.1,286046999.9,N
1525463276.0,286046999.9,N
1525463295.8,286047002.6,N
1525463315.6,286047002.4,N
1525463335.5,286047002.1,N
1525463355.3,286047001.4,N
1525463375.1,286047001.5,N
1525463395.9,286047001.5,N
1525463415.7,286047001.7,N
1525463435.6,286047001.6,N
1525463455.4,286047002.2,N
1525463475.2,286047002.6,N
1525463495.1,286047002.0,N
1525463496.0,286047002.0,N
1525463515.8,286047000.0,N
1525463535.6,286047002.5,N
1525463555.5,286047001.6,N
1525463575.3,286047002.3,N
1525463595.2,286047004.1,Y
1525463615.9,286047002.7,P
1525463635.7,286047001.9,P
1525463655.6,286047002.1,P
1525463675.4,286047002.6,Y
1525463695.3,286046998.9,P
1525463715.1,286046999.0,N
1525463716.0,286046999.0,N
1525463735.8,286046997.0,N
1525463755.7,286046996.7,N
1525463775.5,286046996.8,N
1525463795.3,286046996.5,N
1525463815.2,286046998.4,N
1525463835.0,286046998.5,N
1525463835.9,286046998.5,N
1525463855.8,286046999.0,N
1525463875.6,286047001.1,N
1525463895.4,286046999.1,N
1525463915.3,286046996.7,N
1525463935.1,286046997.0,N
1525463955.8,286046997.1,N
1525463975.7,286046997.1,N
1525463995.5,286046999.6,N
